Presure
185 172 167 170 162 181 142 162 187 159 118 216 218 213 204 200 190 184 182 190 231 192 188 192 195 173 176 179 172 177 187 176 183 149 190 190 184 172 170 168 160 160 170
179 178 159 140 163 167 139 127 158 174 177 165 153 145 207 207 195 199 192 194 190 265 206 193 187 178 173 177 175 184 173 168 160 207 177 179 183 184 184 171 164 166 165
157 158 169 176 176 173 167 169 155 167 188 217 192 227 213 205 202 199 196 189 187 185 196 211 216 197 187 185 180 186 195 175 173 175 159 158 182 181 178 174 173 172 169
152 158 161 154 163 165 162 152 151 156 149 161 175 183 197 211 216 188 182 220 217 217 192 184 181 186 200 208 214 203 173 187 199 194 183 168 217 191 184 181 178 174 172
183 169 173 151 175 154 174 179 153 157 178 160 183 175 168 166 172 173 172 178 181 185 185 186 207 201 190 184 181 188 199 212 176 182 178 172 182 209 191 179 176 179 180
162 178 171 179 181 182 169 177 138 161 182 152 160 192 174 174 170 160 155 154 166 172 165 163 164 172 177 172 171 192 199 187 180 185 187 198 196 171 167 162 167 173 181
192 178 168 178 176 176 173 184 166 190 173 153 162 161 180 173 162 172 161 153 156 161 150 163 169 170 164 168 178 173 170 171 172 172 182 180 176 172 172 179 183 189 175
191 174 191 165 163 173 165 164 162 169 173 164 161 168 171 171 164 179 168 153 171 157 164 164 166 168 168 163 160 178 171 182 160 171 180 178 178 177 181 179 183 179 175
196 198 160 160 176 175 166 183 172 154 170 189 159 160 163 165 170 171 160 160 164 163 163 155 158 166 165 159 172 178 160 172 174 171 171 177 182 160 151 181 223 224 190
193 190 198 196 188 194 163 158 173 188 175 191 153 162 163 164 169 173 163 161 157 168 161 161 151 164 170 167 161 177 182 170 177 181 174 182 184 186 246 253 247 243 231
209 192 170 170 171 174 180 187 178 185 188 194 195 175 170 165 163 161 172 163 152 158 156 159 159 160 174 172 171 177 177 169 182 186 184 190 191 266 270 258 249 262 261
195 180 187 187 183 187 181 178 183 191 192 197 189 181 175 156 158 170 174 201 160 158 158 156 168 162 174 169 183 180 166 179 183 177 192 192 260 284 250 225 264 269 265
190 174 154 155 188 175 190 181 199 183 165 168 190 153 177 164 151 160 166 168 160 169 173 174 169 167 180 184 187 176 166 191 180 193 197 240 275 271 269 259 259 253 254
198 198 194 186 182 184 187 206 169 169 187 198 201 197 187 199 190 162 163 169 161 166 135 173 171 183 175 190 177 171 185 189 191 201 235 277 264 262 261 252 238 228 239
192 193 144 197 205 204 214 181 190 196 193 183 166 191 194 196 174 175 170 169 180 177 174 147 179 178 192 181 174 179 191 191 202 281 272 262 259 252 251 237 236 232 239
201 202 172 182 184 193 192 174 187 196 172 175 177 174 184 168 174 170 180 197 178 183 169 191 172 184 182 179 185 198 194 203 260 275 262 259 255 247 233 242 230 239 245
211 203 203 200 202 202 172 174 198 169 175 185 200 195 179 174 190 194 182 174 169 167 183 176 166 186 183 188 195 197 207 271 266 256 267 256 238 236 238 241 240 251 256
213 201 158 157 198 150 150 178 213 200 173 152 172 197 183 179 158 165 176 178 181 179 172 176 186 187 190 201 217 257 273 267 270 252 263 245 245 241 240 241 254 250 247
190 192 153 154 179 180 193 188 161 177 149 186 175 164 176 180 166 191 186 173 171 189 194 189 189 202 211 278 280 280 275 261 269 267 259 252 247 240 251 262 250 248 242
152 151 162 157 158 158 165 196 206 158 182 170 158 198 168 179 178 176 172 187 193 187 206 216 229 281 285 275 298 294 290 286 274 271 263 259 252 252 257 254 249 245 237
204 206 209 164 153 189 162 188 170 175 196 152 159 181 172 180 183 190 194 211 210 214 231 278 283 273 332 327 321 310 306 300 285 277 265 263 254 253 250 248 241 233 227
190 184 128 198 161 181 180 191 177 174 183 186 176 173 184 196 212 210 212 219 227 266 282 289 302 315 296 279 264 257 253 251 249 261 257 254 247 245 245 234 231 231 235
190 189 190 190 189 185 176 154 183 182 179 179 216 211 207 209 221 261 259 285 281 273 269 294 283 274 265 261 251 249 248 248 244 243 243 242 242 239 234 234 233 232 228
188 173 174 176 187 184 179 210 214 211 206 209 217 214 235 270 283 282 270 274 299 282 279 275 267 256 257 244 250 242 233 237 233 233 231 229 229 229 228 228 228 228 227
175 214 192 207 209 212 211 212 218 216 216 216 226 299 291 281 270 283 266 281 268 266 261 254 252 247 242 239 240 232 232 232 232 233 234 233 230 230 230 230 230 233 233
206 206 210 213 214 214 213 217 226 233 252 304 286 275 266 282 264 267 267 261 253 248 248 242 239 237 235 240 236 237 236 241 240 237 237 237 237 238 239 239 240 241 243
Wind_Speed
10 15 17 14 11 17 34 13 20 20 30 14 14 13 14 13 9 6 9 11 12 15 13 14 21 25 20 25 25 32 33 40 43 41 56 64 76 76 76 77 70 73 75
14 18 20 35 9 12 34 35 14 18 19 16 15 19 9 10 8 9 10 11 10 8 21 23 21 20 22 27 28 35 36 42 47 41 56 58 66 70 74 79 74 77 77
26 25 22 18 16 16 17 20 17 16 19 13 19 3 3 4 9 9 11 8 9 8 6 7 18 28 29 29 30 32 38 42 47 50 50 51 68 69 69 68 71 74 75
31 25 20 24 14 18 22 23 21 21 20 18 18 9 10 5 9 9 10 11 9 8 9 8 8 9 14 16 18 25 33 36 42 47 50 53 53 71 74 75 73 74 76
33 29 28 27 23 27 24 26 23 24 24 17 14 17 13 12 12 11 11 11 11 10 9 8 7 12 17 16 16 19 21 21 37 42 46 50 52 58 72 73 73 78 81
26 31 26 29 23 25 24 25 25 24 24 20 20 11 16 13 13 17 19 20 15 13 16 15 15 15 16 19 22 21 24 30 33 35 40 40 46 56 60 64 70 74 80
35 28 26 24 24 20 24 28 26 21 21 24 24 22 16 16 22 19 22 24 23 20 28 19 19 21 24 25 25 28 31 34 37 41 44 49 56 60 63 65 70 72 80
30 30 35 29 24 24 29 27 26 25 26 25 26 24 22 23 23 19 24 27 24 28 26 27 27 28 30 31 34 36 36 36 43 42 46 52 58 63 68 72 76 81 84
29 31 31 34 38 34 35 38 32 28 32 35 31 30 26 27 29 31 30 33 32 33 34 34 35 40 39 39 43 47 46 46 49 49 52 56 61 70 70 73 76 79 89
35 35 38 38 36 37 35 35 33 39 38 36 32 37 35 31 35 38 37 38 39 41 40 41 41 47 49 48 45 54 57 51 57 60 59 62 66 68 75 78 81 85 87
40 35 35 35 33 34 34 37 36 40 42 40 40 41 40 37 37 38 45 43 41 44 43 47 48 51 56 56 57 60 60 57 67 69 67 74 77 78 79 78 78 83 88
38 37 39 37 37 40 38 38 40 44 42 42 42 44 46 41 42 45 49 51 47 49 51 51 58 57 61 61 68 66 58 70 72 67 80 80 76 75 76 77 76 71 69
40 37 35 36 42 40 45 41 49 44 39 42 45 42 47 48 44 47 50 52 53 56 59 62 63 64 69 71 72 70 63 82 73 86 89 87 69 67 66 64 59 61 60
46 48 46 41 42 44 47 52 42 44 48 49 51 52 54 60 58 53 56 58 58 60 51 66 67 72 72 77 73 70 83 83 87 95 91 64 63 61 58 58 62 64 65
48 47 39 46 50 51 53 46 49 50 51 51 51 55 58 60 57 59 60 62 64 66 68 55 72 74 80 77 74 80 88 89 98 66 61 60 60 61 59 60 60 64 66
52 52 44 45 45 48 49 48 52 54 53 53 56 57 60 60 62 63 66 70 68 71 69 78 74 79 81 81 87 94 95 100 80 61 60 60 59 59 61 63 66 67 64
58 55 55 52 53 55 49 51 59 55 56 57 64 62 61 64 68 71 68 67 69 72 78 77 74 86 86 90 96 99 103 70 66 65 59 58 62 63 63 63 65 63 55
58 57 48 49 56 47 47 55 72 69 56 53 60 67 65 66 62 65 72 74 78 79 78 80 89 89 93 102 104 88 71 69 61 67 56 63 62 62 64 63 58 53 53
51 51 49 50 55 57 61 62 55 62 59 66 63 61 68 72 69 80 79 77 79 89 93 93 94 101 105 80 73 71 69 70 64 57 56 59 59 60 62 56 53 53 53
51 52 55 55 55 55 60 64 67 59 66 68 67 79 69 76 78 79 80 90 95 93 102 104 106 83 74 74 66 63 63 60 60 55 54 55 56 56 54 52 50 52 54
60 60 60 60 59 65 63 71 66 70 77 65 71 78 78 84 89 94 96 100 101 104 109 82 75 73 52 50 46 40 40 40 42 40 42 46 48 49 47 48 51 54 57
63 63 48 70 64 71 71 75 73 74 77 81 78 79 89 95 99 100 103 106 107 88 76 68 58 44 45 49 52 52 50 48 48 45 49 50 50 51 51 54 57 59 60
71 71 72 74 76 75 72 69 80 82 81 85 97 98 101 102 105 95 94 76 75 75 74 55 54 52 52 51 52 52 51 51 50 52 53 54 55 56 57 59 60 62 63
76 68 73 73 84 81 80 92 97 96 96 99 101 103 104 87 79 76 78 76 61 60 56 55 55 56 55 57 55 56 59 58 58 58 59 60 61 62 63 65 67 68 69
73 88 82 91 93 96 97 98 101 102 104 105 107 74 73 73 76 69 73 59 59 63 63 62 61 63 65 65 64 64 66 67 67 67 68 68 69 71 71 73 75 76 78
89 90 93 95 98 98 99 102 106 107 98 69 69 71 73 68 71 66 64 64 67 71 72 72 72 73 75 76 75 76 77 78 75 76 77 78 79 80 81 82 83 85 86
Wind_Direction
206 225 241 247 243 309 255 299 345 285 305 294 284 275 277 281 290 282 299 300 301 264 248 221 195 225 224 232 232 240 246 238 244 248 245 240 241 247 246 248 252 256 260
230 237 239 265 249 259 259 287 296 340 344 340 301 271 282 270 294 284 303 320 331 289 240 235 245 245 248 239 245 239 236 239 246 246 249 254 251 250 249 252 258 260 262
239 253 255 263 268 269 257 289 269 295 346 289 285 287 267 276 273 294 303 321 330 334 332 272 255 248 254 256 257 250 240 246 247 248 255 260 251 255 255 254 254 254 257
257 249 246 255 249 259 260 264 275 289 279 324 323 336 12 323 273 340 359 300 308 298 287 302 298 294 285 276 275 265 257 262 253 251 253 258 250 248 253 258 260 262 264
226 237 249 251 268 257 277 284 274 284 302 306 311 313 325 333 344 346 346 357 7 5 359 344 328 300 297 290 277 277 277 277 263 262 263 267 265 253 252 262 268 265 265
243 231 243 258 271 280 270 282 277 277 294 293 309 309 289 306 310 303 309 312 319 321 308 305 303 306 304 296 291 294 289 278 269 268 268 272 272 263 264 266 268 270 269
238 233 244 253 261 256 270 279 275 289 278 288 300 304 295 283 286 298 289 289 290 294 294 293 300 298 290 294 293 284 281 280 279 277 277 273 271 270 269 266 263 265 264
233 237 244 253 249 251 268 267 278 283 284 281 293 298 300 294 290 291 289 291 291 289 290 289 293 295 289 283 280 295 284 285 279 279 280 278 277 275 273 270 267 267 266
245 241 252 260 256 258 268 270 268 285 282 289 288 292 295 299 299 291 292 294 296 294 295 293 293 298 294 289 297 299 282 286 288 285 281 286 286 275 287 280 274 269 265
230 240 249 253 258 264 271 279 274 274 278 283 289 291 291 295 291 289 291 292 298 296 296 296 293 297 294 290 287 299 298 289 294 292 286 290 292 291 285 274 270 267 264
235 240 255 256 258 265 265 269 278 280 278 276 274 274 281 289 288 290 289 290 296 295 296 296 295 296 299 298 295 298 296 293 299 301 300 303 301 282 280 278 279 279 270
245 247 250 254 258 263 266 273 276 277 276 274 273 273 279 294 293 290 289 295 293 294 296 298 297 298 298 295 298 299 292 301 301 297 304 304 289 284 280 281 281 280 279
249 261 280 283 264 270 270 272 273 274 288 288 273 293 281 289 297 294 293 290 293 293 293 295 297 298 298 298 300 301 298 304 302 306 306 300 285 286 284 282 279 277 277
253 254 255 262 268 272 272 270 281 283 279 279 278 278 280 282 285 293 293 291 295 295 300 296 296 297 298 300 300 300 303 304 305 306 302 287 287 286 284 281 277 278 280
254 258 282 263 264 265 268 277 277 278 280 283 286 284 284 285 288 290 289 292 292 293 294 292 296 297 299 299 299 301 304 304 305 292 289 287 284 283 281 281 282 279 279
257 260 268 269 268 269 273 279 279 280 284 282 284 286 287 288 286 289 292 293 293 295 293 296 296 298 300 300 301 303 304 304 299 290 290 286 283 281 285 281 282 283 287
256 261 264 269 272 274 275 275 281 282 280 283 286 287 287 288 291 292 292 294 293 292 295 296 295 299 300 301 303 302 301 295 293 292 285 283 286 285 284 284 285 289 288
259 265 273 277 276 285 288 278 276 280 286 291 290 290 291 292 291 293 294 294 295 296 294 295 298 300 301 299 300 299 293 292 290 291 284 286 282 283 282 285 286 283 285
269 270 279 281 275 277 277 281 286 286 290 289 290 292 292 292 292 293 293 294 294 297 297 299 299 298 298 296 295 294 294 293 290 287 282 280 281 283 286 287 284 282 281
270 274 275 280 283 283 285 280 280 288 287 291 292 289 291 293 294 294 293 296 296 298 297 298 300 297 296 296 294 292 290 284 283 285 282 281 281 283 283 282 282 281 281
276 277 278 277 278 280 281 283 285 287 287 286 290 291 292 295 296 296 296 294 295 298 300 296 297 296 294 293 293 291 289 284 282 281 282 280 278 282 283 283 281 282 284
276 276 282 278 282 281 281 282 286 288 289 291 291 289 294 293 294 295 296 297 299 298 297 298 299 297 295 293 294 293 292 292 292 289 287 286 286 286 284 284 284 285 286
278 279 281 283 284 285 283 282 289 291 291 292 293 294 295 295 296 297 297 295 296 297 298 299 296 293 292 291 290 291 293 293 292 291 290 289 288 287 287 287 287 287 288
277 276 279 284 285 285 287 288 288 290 292 293 294 294 295 295 294 295 297 298 301 299 297 298 296 294 293 291 291 290 290 289 288 288 288 287 287 286 286 286 287 287 288
277 281 282 284 285 287 288 290 290 291 292 294 295 296 295 294 296 298 297 300 297 297 298 296 294 294 293 292 291 291 291 291 290 288 287 286 287 288 288 288 289 289 289
281 282 283 284 285 286 288 290 291 291 294 294 294 293 295 296 296 296 295 296 295 295 295 295 294 295 296 294 293 293 293 291 288 288 287 287 287 286 286 286 285 286 286